Home   Weather   33°39'N, 85°49'W   Past weeks
Flag for USA

Past Weather in 33°39'N, 85°49'W, USA — Yesterday and Last 2 Weeks

Now
56 °F

Passing clouds.


Feels Like: 55 °F
Forecast: 76 / 54 °F
Wind: 6 mph from Northwest

Location: Talladega Municipal Airport

Current Time: Oct 19, 2019 at 9:04:23 pm

Latest Report: Oct 19, 2019 at 8:15 pm


Visibility: 10 mi

Pressure: 29.80 "Hg

Humidity: 96%

Dew Point: 55 °F

Location of 33°39'N, 85°49'WLocation

Past Weather in 33°39'N, 85°49'W — Graph

°F

33°39'N, 85°49'W Temperature Yesterday

Maximum temperature yesterday: 67 °F (at 2:55 pm)
Minimum temperature yesterday: 40 °F (at 6:35 am)
Average temperature yesterday: 54 °F

High & Low Weather Summary for the Past Weeks

 TemperatureHumidityPressure
High94 °F (Oct 5, 12:55 pm)100% (Oct 14, 1:35 am)30.19 "Hg (Oct 14, 1:35 am)
Low40 °F (Oct 18, 6:35 am)31% (Oct 11, 3:55 pm)29.77 "Hg (Oct 19, 4:55 pm)
Average66 °F76%30.04 "Hg
* Reported Oct 4 7:15 pm — Oct 19 7:55 pm, 33°39'N, 85°49'W. Weather by CustomWeather, © 2019

Note: Actual official high and low records may vary slightly from our data, if they occured in-between our weather recording intervals... More about our weather records

Advertising

33°39'N, 85°49'W Weather History for the Previous 24 Hours

Scroll right to see more
 ConditionsComfort  
Time TempWeatherWind HumidityBarometerVisibility
7:55 pm
Sat, Oct 19
56 °FPassing clouds.No wind97%29.80 "Hg10 mi
7:35 pm56 °FClear.5 mph97%29.79 "Hg10 mi
6:55 pm57 °FOvercast.5 mph97%29.79 "Hg10 mi
6:35 pm57 °FLight rain. Mostly cloudy.6 mph98%29.80 "Hg10 mi
6:15 pm58 °FMostly cloudy.6 mph96%29.79 "Hg10 mi
5:55 pm58 °FMore clouds than sun.7 mph95%29.79 "Hg10 mi
5:35 pm58 °FMore clouds than sun.6 mph95%29.78 "Hg10 mi
5:15 pm58 °FOvercast.5 mph95%29.77 "Hg10 mi
4:55 pm58 °FOvercast.6 mph97%29.77 "Hg10 mi
4:35 pm58 °FOvercast.8 mph97%29.78 "Hg10 mi
4:15 pm58 °FDrizzle. Low clouds.5 mph98%29.78 "Hg7 mi
3:35 pm58 °FLight rain. Mostly cloudy.9 mph98%29.78 "Hg5 mi
3:15 pm59 °FLight rain. Cloudy.7 mph98%29.78 "Hg5 mi
2:55 pm59 °FDrizzle. Low clouds.7 mph97%29.79 "Hg10 mi
2:35 pm58 °FLight rain. Mostly cloudy.7 mph98%29.79 "Hg5 mi
2:15 pm58 °FRain. Mostly cloudy.7 mph97%29.80 "Hg4 mi
1:55 pm58 °FLight rain. More clouds than sun.5 mph98%29.81 "Hg7 mi
1:35 pm58 °FRain. Low clouds.8 mph96%29.81 "Hg5 mi
1:15 pm58 °FDrizzle. Mostly cloudy.5 mph97%29.83 "Hg7 mi
12:55 pm58 °FLight rain. Mostly cloudy.8 mph97%29.84 "Hg5 mi
12:35 pm58 °FLight rain. Overcast.9 mph96%29.85 "Hg7 mi
12:15 pm58 °FLight rain. Mostly cloudy.12 mph95%29.86 "Hg7 mi
11:55 am58 °FRain. More clouds than sun.9 mph94%29.87 "Hg10 mi
11:35 am58 °FRain. Overcast.9 mph95%29.88 "Hg10 mi
11:15 am58 °FLight rain. Overcast.8 mph94%29.88 "Hg10 mi
10:55 am58 °FDrizzle. Overcast.10 mph91%29.89 "Hg10 mi
10:35 am58 °FLight rain. Overcast.10 mph90%29.90 "Hg10 mi
10:15 am57 °FOvercast.12 mph91%29.90 "Hg10 mi
9:55 am57 °FOvercast.9 mph93%29.90 "Hg10 mi
9:35 am57 °FOvercast.13 mph94%29.90 "Hg10 mi
9:15 am57 °FOvercast.12 mph94%29.91 "Hg10 mi
8:55 am57 °FOvercast.10 mph95%29.91 "Hg10 mi
8:35 am57 °FLight rain. Mostly cloudy.12 mph97%29.91 "Hg10 mi
8:15 am57 °FHeavy rain. Mostly cloudy.13 mph97%29.90 "Hg4 mi
7:35 am57 °FRain. Cloudy.13 mph95%29.89 "Hg5 mi
7:15 am57 °FDrizzle. Cloudy.9 mph97%29.89 "Hg10 mi
6:55 am57 °FRain. More clouds than sun.10 mph97%29.89 "Hg5 mi
6:35 am58 °FRain. Mostly cloudy.9 mph94%29.89 "Hg7 mi
6:15 am59 °FRain. Mostly cloudy.8 mph85%29.89 "Hg10 mi
5:55 am61 °FOvercast.6 mph79%29.89 "Hg10 mi
5:35 am61 °FPartly cloudy.8 mph77%29.88 "Hg10 mi
5:15 am61 °FPassing clouds.6 mph75%29.88 "Hg10 mi
4:55 am61 °FPassing clouds.7 mph73%29.88 "Hg10 mi
4:35 am60 °FPassing clouds.8 mph73%29.87 "Hg10 mi
4:15 am60 °FPassing clouds.6 mph72%29.87 "Hg10 mi
3:55 am60 °FPassing clouds.6 mph70%29.87 "Hg10 mi
3:35 am60 °FPassing clouds.8 mph69%29.87 "Hg10 mi
3:15 am60 °FPartly cloudy.9 mph68%29.88 "Hg10 mi
2:55 am60 °FPassing clouds.8 mph66%29.89 "Hg10 mi
2:35 am60 °FPassing clouds.6 mph65%29.89 "Hg10 mi
2:15 am60 °FClear.8 mph64%29.90 "Hg10 mi
1:55 am59 °FClear.7 mph66%29.89 "Hg10 mi
1:35 am59 °FClear.7 mph67%29.90 "Hg10 mi
1:15 am58 °FPassing clouds.7 mph70%29.90 "Hg10 mi
12:55 am57 °FClear.5 mph69%29.91 "Hg10 mi
12:35 am58 °FPassing clouds.5 mph66%29.91 "Hg10 mi
12:15 am57 °FPassing clouds.6 mph70%29.91 "Hg10 mi
11:55 pm
Fri, Oct 18
58 °FClear.6 mph68%29.92 "Hg10 mi
11:35 pm57 °FClear.6 mph70%29.92 "Hg10 mi
11:15 pm56 °FClear.7 mph73%29.93 "Hg10 mi
10:55 pm55 °FClear.7 mph78%29.92 "Hg10 mi
10:35 pm54 °FClear.6 mph79%29.93 "Hg10 mi
10:15 pm54 °FClear.7 mph79%29.93 "Hg10 mi
9:35 pm53 °FClear.3 mph84%29.93 "Hg10 mi
9:15 pm53 °FClear.6 mph81%29.93 "Hg10 mi
Weather by CustomWeather, © 2019

See weather overview